User: anonymous   Login
Location: Caltech
(34.1382°N, 118.1253°W)
Time: 06:16:54
(UTC-07:00)
Language:

SO-67 - Orbit

View from above orbital plane
View from above orbital plane
View from above satellite
View from above satellite

Ground track
Ground track

The orbit data is extracted from the following two-line orbital elements,

1 35870U 09049F   14305.11559199  .00013407  00000-0  39127-3 0  6535
2 35870 097.1539 322.1924 0001722 044.9111 040.5834 15.35447477285044
Epoch (UTC): 01 November 2014 02:46:27
Eccentricity: 0.0001722
inclination: 97.1539°
perigee height: 458 km
apogee height: 461 km
right ascension of ascending node: 322.1924°
argument of perigee: 44.9111°
revolutions per day: 15.35447477
mean anomaly at epoch: 40.5834°
orbit number at epoch: 28504

The dashed part of the orbit path shows where the satellite is in the earth's shadow,  

DLR